Regional Weather Roundup
Issued by NWS

Home | Current Version | Previous Version | Text Only | Print | Product List | Glossary On
Versions: 1 2 3 4 5 6 7 8 9 10 11 12 13 14 15 16 17 18 19 20 21 22 23 24 25 26 27
000
ASUS44 KLIX 141312
RWRLA
LOUISIANA WEATHER ROUNDUP
NATIONAL WEATHER SERVICE NEW ORLEANS LA
700 AM CST THU DEC 14 2017

NOTE: "FAIR" INDICATES FEW OR NO CLOUDS BELOW 12,000 FEET WITH NO
      SIGNIFICANT WEATHER AND/OR OBSTRUCTIONS TO VISIBILITY.
      SKY/WX - SKY CONDITION AND SIGNIFICANT WEATHER.
      TMP - AIR TEMPERATURE.    DP   - DEWPOINT TEMPERATURE.
      RH  - RELATIVE HUMIDITY.  PRES - PRESSURE.
      HX  - HEAT INDEX.         WCI  - WIND CHILL INDEX.

*  THESE STATIONS ARE NOT NWS OR FAA STATIONS AND ARE NOT UNDER
   NWS QUALITY CONTROL.

LAZ040-048-061>063-065-066-069-141400-
SOUTHEAST LOUISIANA

CITY           SKY/WX    TMP DP  RH WIND       PRES   REMARKS
N.O. INTL ARPT MOCLDY    43  42  97 CALM      30.00R
N.O. LAKEFRONT CLOUDY    47  44  90 S6        30.00S
N.O. DOWNTOWN* FAIR      51  46  83 CALM      30.00S
RESERVE*       FAIR      41  39  91 CALM      30.00S
SLIDELL        FOG       38  36  92 CALM      30.00R VSB 1
BATON ROUGE    PTCLDY    38  37  97 CALM      29.99R
BOOTHVILLE     CLEAR     51  48  89 CALM      30.02R
BELLE CHASSE   MOCLDY    38  38 100 CALM      30.00S
BOGALUSA*      FAIR      35  33  90 MISG      29.99S
GALLIANO*      FOG       37  35  92 CALM      30.00S VSB 1/2
NEW ROADS*     FOG       36  35  98 CALM      29.99R VSB<1/4
GONZALES*      FAIR      39  38  98 CALM      29.99R
HAMMOND*       MOCLDY    36  36 100 CALM      29.99F
HOUMA*         CLEAR     39  39 100 CALM      29.99R
PORT FOURCHON* SUNNY     54  50  87 E3        30.01S

$$

LAZ041-044-053-054-141400-
SOUTHWEST LOUISIANA

CITY           SKY/WX    TMP DP  RH WIND       PRES   REMARKS
LAKE CHARLES   CLOUDY    43  42  97 CALM      29.98R FOG
LAFAYETTE      CLOUDY    41  41 100 CALM      29.99R
PATTERSON      PTCLDY    42  42 100 CALM      30.00S
SALT POINT       N/A     46  45  96 SE3       29.98S
NEW IBERIA     CLEAR     39  37  92 CALM      30.00R FOG
CHENAULT AIRPK MOCLDY    39  39 100 CALM      29.99R

$$

LAZ027-028-141400-
CENTRAL LOUISIANA

CITY           SKY/WX    TMP DP  RH WIND       PRES   REMARKS
FORT POLK      MOCLDY    42  37  82 CALM      29.95R
ALEXANDRIA INT CLOUDY    35  34  96 CALM      29.96R
ALEXANDRIA     MOCLDY    31  31 100 CALM      29.97R

$$

LAZ001-002-141400-
NORTHWEST LOUISIANA

CITY           SKY/WX    TMP DP  RH WIND       PRES   REMARKS
SHREVEPORT     MOCLDY    37  35  92 CALM      29.96R
BARKSDALE AFB  PTCLDY    33  30  89 CALM      29.96R
DTN SHREVEPORT PTCLDY    37  33  85 CALM      29.96R

$$

LAZ014-016-141400-
NORTHEAST LOUISIANA

CITY           SKY/WX    TMP DP  RH WIND       PRES   REMARKS
MONROE         CLOUDY    33  31  92 CALM      29.97R
TALLULAH       MOCLDY    32  31  96 SW3       29.97R

$$





USA.gov is the U.S. government's official web portal to all federal, state and local government web resources and services.